Weather History for Naples, FL

Change the Weather History Date:

Wednesday, July 24, 2013

  Actual Average Record
Temperature  
Mean Temperature 84 °F 83 °F  
Max Temperature 88 °F 91 °F 97 °F (1998)
Min Temperature 79 °F 75 °F 68 °F (1981)
Degree Days  
Heating Degree Days 0 0  
Month to date heating degree days 0 0  
Since 1 June heating degree days 0 0  
Since 1 July heating degree days 0 0  
Cooling Degree Days 19 18  
Month to date cooling degree days 401 432  
Year to date cooling degree days 1999 1967  
Since 1 June cooling degree days 895 939  
Growing Degree Days 34 (Base 50)    
Moisture  
Dew Point 75 °F    
Average Humidity 77    
Maximum Humidity 85    
Minimum Humidity 68    
Precipitation  
Precipitation 0.00 in 0.21 in 2.06 in (1985)
Month to date precipitation 8.41 5.83  
Year to date precipitation 27.51 26.50  
Snow  
Snow 0.00 in - - ()
Month to date snowfall 0.0  
Since 1 June snowfall 0.0  
Since 1 July snowfall 0.0  
Snow Depth 0.00 in    
Sea Level Pressure  
Sea Level Pressure 29.98 in    
Wind  
Wind Speed 8 mph (West)    
Max Wind Speed 16 mph    
Max Gust Speed 21 mph    
Visibility 9 miles    
Events      
T = Trace of Precipitation, MM = Missing Value Source: NWS Daily Summary

Daily Weather History Graph

Daily Weather History Graph

Search for Another Location

Airport:

Trip Planner

Search our weather history database for the weather conditions in past years. The results will help you decide how hot, cold, wet, or windy it might be!

Date:

Astronomy

Jul. 24, 2013 Rise Set
Actual Time 6:48 AM EDT 8:18 PM EDT
Civil Twilight 6:23 AM EDT 8:43 PM EDT
Nautical Twilight 5:53 AM EDT 9:13 PM EDT
Astronomical Twilight 5:22 AM EDT 9:44 PM EDT
Moon 9:45 PM EDT (7/24) 8:49 AM EDT (7/24)
Length of Visible Light 14h 19m
Length of Day
13h 29m
Waning Gibbous, 95% of the Moon is Illuminated
Jul 24
Waning Gibbous
Jul 29
Last Quarter
Aug 6
New
Aug 14
First Quarter
Aug 20
Full

Hourly Weather History & Observations

Time (EDT) Temp. Heat Index Dew Point Humidity Pressure Visibility Wind Dir Wind Speed Gust Speed Precip Events Conditions
12:53 AM 82.0 °F 89.4 °F 75.9 °F 82% 30.02 in 9.0 mi West 4.6 mph - N/A   Partly Cloudy
1:53 AM 82.0 °F 89.4 °F 75.9 °F 82% 30.00 in 10.0 mi WSW 4.6 mph - N/A   Clear
2:53 AM 82.0 °F 89.4 °F 75.9 °F 82% 29.98 in 10.0 mi West 5.8 mph - N/A   Scattered Clouds
3:53 AM 81.0 °F 87.3 °F 75.9 °F 85% 29.97 in 10.0 mi West 4.6 mph - N/A   Scattered Clouds
4:44 AM 80.6 °F 86.2 °F 75.2 °F 84% 29.96 in 9.0 mi WNW 3.5 mph - N/A   Mostly Cloudy
4:53 AM 81.0 °F 86.7 °F 75.0 °F 82% 29.96 in 9.0 mi WNW 3.5 mph - N/A   Scattered Clouds
5:53 AM 80.1 °F 85.1 °F 75.0 °F 85% 29.97 in 10.0 mi Calm Calm - N/A   Clear
6:53 AM 80.1 °F 85.1 °F 75.0 °F 85% 29.98 in 9.0 mi Calm Calm - N/A   Clear
7:53 AM 82.0 °F 89.4 °F 75.9 °F 82% 29.98 in 8.0 mi WSW 4.6 mph - N/A   Scattered Clouds
8:53 AM 84.0 °F 92.6 °F 75.9 °F 76% 30.00 in 9.0 mi West 9.2 mph - N/A   Scattered Clouds
9:53 AM 86.0 °F 96.0 °F 75.9 °F 72% 30.01 in 9.0 mi WSW 8.1 mph - N/A   Scattered Clouds
10:53 AM 86.0 °F 96.0 °F 75.9 °F 72% 30.02 in 9.0 mi West 12.7 mph - N/A   Partly Cloudy
11:53 AM 86.0 °F 96.0 °F 75.9 °F 72% 30.01 in 9.0 mi West 12.7 mph - N/A   Partly Cloudy
12:53 PM 87.1 °F 97.3 °F 75.9 °F 69% 30.02 in 10.0 mi West 11.5 mph - N/A   Scattered Clouds
1:53 PM 87.1 °F 96.3 °F 75.0 °F 67% 30.01 in 10.0 mi West 13.8 mph - N/A   Partly Cloudy
2:53 PM 87.1 °F 96.3 °F 75.0 °F 67% 29.99 in 9.0 mi WNW 15.0 mph 19.6 mph N/A   Scattered Clouds
3:53 PM 87.1 °F 96.3 °F 75.0 °F 67% 29.97 in 9.0 mi West 11.5 mph - N/A   Scattered Clouds
4:53 PM 87.1 °F 96.3 °F 75.0 °F 67% 29.96 in 9.0 mi West 13.8 mph - N/A   Scattered Clouds
5:53 PM 87.1 °F 97.3 °F 75.9 °F 69% 29.95 in 9.0 mi West 11.5 mph - N/A   Partly Cloudy
6:53 PM 84.9 °F 92.1 °F 73.9 °F 69% 29.95 in 9.0 mi West 10.4 mph - N/A   Partly Cloudy
7:53 PM 84.0 °F 90.2 °F 73.0 °F 69% 29.96 in 9.0 mi West 9.2 mph - N/A   Partly Cloudy
8:53 PM 82.9 °F 88.8 °F 73.0 °F 72% 29.97 in 10.0 mi West 9.2 mph - N/A   Mostly Cloudy
9:53 PM 82.9 °F 89.4 °F 73.9 °F 74% 29.98 in 10.0 mi West 6.9 mph - N/A   Partly Cloudy
10:53 PM 82.9 °F 89.4 °F 73.9 °F 74% 29.98 in 10.0 mi West 5.8 mph - N/A   Scattered Clouds
11:53 PM 82.9 °F 90.2 °F 75.0 °F 77% 29.97 in 9.0 mi West 9.2 mph - N/A   Scattered Clouds